Weather Roundup
Issued by NWS

Home | Current Version | Previous Version | Text Only | Print | Product List | Glossary On
Versions: 1 2 3 4 5 6 7 8 9 10 11 12 13 14 15 16 17 18 19 20 21 22 23 24 25 26 27 28 29 30 31 32 33 34 35 36 37 38 39 40 41 42 43 44 45 46 47 48 49 50
000
NZUS93 KARX 211859
HRRWXR

CURRENT HOURLY OBSERVATIONS ACROSS
MUCH OF THE UPPER MISSISSIPPI VALLEY
NATIONAL WEATHER SERVICE LA CROSSE WI
200 PM CDT TUE OCT 21 2014


...SOUTHEAST MINNESOTA...


CITY           SKY/WX    TMP DP  RH WIND       PRES   REMARKS
ROCHESTER      SUNNY     54  40  59 SE7       30.18F
ROCHESTER/MAYO FAIR      55  37  51 E5        30.18F
WINONA         SUNNY     54  37  54 SE3       30.21F
AUSTIN         SUNNY     57  43  58 SE7       30.16F
ALBERT LEA     SUNNY     61  41  48 SE12      30.14F
DODGE CENTER   SUNNY     57  43  58 SE7       30.17F
PRESTON        SUNNY     53  39  58 E7        30.19F
OWATONNA       SUNNY     59  41  51 SE7       30.15F
FARIBAULT      SUNNY     61  43  51 SE10      30.15F
$$

...ELSEWHERE IN MINNESOTA...


CITY           SKY/WX    TMP DP  RH WIND       PRES   REMARKS
MINNEAPOLIS    SUNNY     55  40  56 SE9       30.17F
INTNL FALLS    SUNNY     48  36  63 SE18G24   30.15F
DULUTH         CLOUDY    44  34  67 E16       30.21F
RED WING       SUNNY     55  37  50 SE8       30.18F
REDWOOD FALLS  SUNNY     65  40  39 SE17      30.07F
MANKATO        SUNNY     61  39  44 S14       30.13F
WORTHINGTON    SUNNY     66  41  39 S10G18    30.07F
FAIRMONT       SUNNY     63  37  39 S14       30.10F
$$

...SOUTHWEST WISCONSIN...


CITY           SKY/WX    TMP DP  RH WIND       PRES   REMARKS
LA CROSSE      SUNNY     57  38  48 VRB3      30.20F
PRAIRIE DU CHI SUNNY     55  36  49 E8        30.19F
BOSCOBEL       SUNNY     56  36  47 NE7       30.21F
LONE ROCK      NOT AVBL
PLATTEVILLE    SUNNY     54  38  54 NE7       30.21F
FORT MC COY    SUNNY     54  35  48 NE3       30.23F
VIROQUA        FAIR      54  36  51 E5        30.20F
WIS DELLS      CLOUDY    46  35  65 E6        30.23F
$$

...ELSEWHERE IN WISCONSIN...


CITY           SKY/WX    TMP DP  RH WIND       PRES   REMARKS
MILWAUKEE      CLOUDY    48  38  68 N14       30.21R
MADISON        CLOUDY    48  37  65 NE9       30.23S
GREEN BAY      SUNNY     50  36  58 N10       30.23F
EAU CLAIRE     NOT AVBL
BLACK RVR FLS  FAIR      52  34  50 S5        30.22F
MEDFORD        MOSUNNY   47  36  65 S6        30.22F
WAUSAU         MOSUNNY   50  35  56 N6        30.22F
WIS RAPIDS     MOSUNNY   47  35  63 E5        30.24F
MARSHFIELD     MOSUNNY   48  36  63 E8        30.22F
RICE LAKE      SUNNY     50  36  57 SE5       30.22F
$$

...NORTHEAST IOWA...


CITY           SKY/WX    TMP DP  RH WIND       PRES   REMARKS
DECORAH        SUNNY     55  39  54 CALM      30.18F
MASON CITY     SUNNY     60  41  49 SE10      30.16F
CHARLES CITY   SUNNY     57  41  54 E9        30.17F
OELWEIN        SUNNY     57  39  51 VRB7G13   30.18F
$$

...ELSEWHERE IN IOWA...


CITY           SKY/WX    TMP DP  RH WIND       PRES   REMARKS
DES MOINES     SUNNY     65  44  46 E7        30.12F
IOWA CITY      SUNNY     59  42  53 NE9       30.18F
FORT DODGE     SUNNY     64  45  48 SE8       30.12F
$$

...NORTHERN ILLINOIS...


CITY           SKY/WX    TMP DP  RH WIND       PRES   REMARKS
CHICAGO-OHARE  CLOUDY    51  40  65 N21G26    30.18R
CHICAGO-MIDWAY CLOUDY    53  42  66 N17       30.17S
MOLINE         SUNNY     58  39  49 N8        30.17F
ROCKFORD       CLOUDY    53  38  56 N12       30.22S
PEORIA         SUNNY     61  39  44 NE9       30.15F
$$

NOTE: "FAIR" INDICATES FEW OR NO CLOUDS BELOW 12,000 FEET WITH NO
SIGNIFICANT WEATHER AND/OR OBSTRUCTIONS TO VISIBILITY. WIND
SPEEDS ARE IN MILES-PER-HOUR.



USA.gov is the U.S. government's official web portal to all federal, state and local government web resources and services.